This demonstration page uses our WeatherBlox Daily Observations layout. Learn more.

38.88101, -77.10428

Hourly Observations for June 12, 2019

Temp ( °F °C ) Dew Point ( °F °C ) Humidity (%) Winds ( mph kmh ) Pressure ( in mb ) Visibility ( mi km ) Precip ( " mm )
12:52 am 00:52 Cloudy 68 20 51 10.6 55 55 NNW 5 7 30.11 1020 10 16.0934 0 0
1:52 am 01:52 Cloudy 66 18.9 54 12.2 65 65 NNW 6 9 30.11 1020 10 16.0934 0 0
2:52 am 02:52 Cloudy 65 18.3 53 11.7 66 66 N 3 6 30.11 1020 10 16.0934 0 0
3:52 am 03:52 Cloudy 65 18.3 53 11.7 66 66 NE 8 13 30.12 1020 10 16.0934 0 0
4:52 am 04:52 Mostly Cloudy 64 17.8 54 12.2 70 70 NE 7 11 30.14 1021 10 16.0934 0 0
5:52 am 05:52 Mostly Cloudy 64 17.8 53 11.7 68 68 NE 7 11 30.16 1021 10 16.0934 0 0
6:52 am 06:52 Mostly Cloudy 65 18.3 53 11.7 66 66 NE 6 9 30.17 1022 10 16.0934 0 0
7:52 am 07:52 Cloudy 67 19.4 53 11.7 61 61 ENE 3 6 30.19 1022 10 16.0934 0 0
8:52 am 08:52 Cloudy 69 20.6 49 9.4 49 49 E 12 19 30.19 1022 10 16.0934 0 0
9:52 am 09:52 Cloudy 70 21.1 47 8.3 44 44 ENE 13 20 30.19 1022 10 16.0934 0 0
10:52 am 10:52 Cloudy 71 21.7 47 8.3 42 42 E 12 19 30.17 1022 10 16.0934 0 0
11:52 am 11:52 Cloudy 73 22.8 48 8.9 41 41 E 8 13 30.17 1022 10 16.0934 0 0
12:52 pm 12:52 Cloudy 74 23.3 47 8.3 38 38 ESE 7 11 30.16 1022 10 16.0934 0 0
1:52 pm 13:52 Mostly Cloudy 76 24.4 51 10.6 42 42 ESE 9 15 30.14 1021 10 16.0934 0 0
2:52 pm 14:52 Partly Cloudy 76 24.4 51 10.6 42 42 ESE 9 15 30.11 1020 10 16.0934 0 0
3:52 pm 15:52 Mostly Cloudy 76 24.4 51 10.6 42 42 S 8 13 30.09 1019 10 16.0934 0 0
4:52 pm 16:52 Mostly Cloudy 76 24.4 52 11.1 43 43 SE 13 20 30.07 1018 10 16.0934 0 0
5:52 pm 17:52 Mostly Cloudy 75 23.9 52 11.1 45 45 SE 14 22 30.04 1017 10 16.0934 0 0
6:52 pm 18:52 Mostly Cloudy 74 23.3 54 12.2 50 50 SE 13 20 30.04 1017 10 16.0934 0 0
7:52 pm 19:52 Cloudy 72 22.2 54 12.2 53 53 SSE 7 11 30.04 1017 10 16.0934 0 0
8:52 pm 20:52 Cloudy 72 22.2 53 11.7 52 52 SSE 7 11 30.04 1017 10 16.0934 0 0
9:16 pm 21:16 Cloudy with Light Rain 71 21.7 54 12.2 55 55 SSE 7 11 30.04 1017 9 14.48406 0 0.0254
9:52 pm 21:52 Cloudy with Light Rain 68 20 57 13.9 68 68 SE 3 6 30.03 1017 8 12.87472 0.04 1.016
10:52 pm 22:52 Mostly Cloudy with Light Rain 68 20 59 15 73 73 Calm 30.01 1016 10 16.0934 0.03 0.762
11:52 pm 23:52 Cloudy with Light Rain 67 19.4 62 16.7 84 84 NE 7 11 29.98 1015 10 16.0934 0.01 0.254

Powered by AerisWeather